FW0840 Weather Reports


Display with metric or nautical units.
time (UTC)temp
F
wind
direction
speed
MPH
gust
MPH
rain 1hr
in
rain 24hr
in
rain mn
in
humidity
%
barometer
mb
20190121063510 11 298 2.0 0.0 0.00 0.00 0.00 83 1017.9
20190121063011 11 257 9.0 0.0 0.00 0.00 0.00 82 1017.7
20190121062511 11 339 3.0 0.0 0.00 0.00 0.00 82 1017.8
20190121062011 11 290 4.0 0.0 0.00 0.00 0.00 82 1017.7
20190121061511 12 227 6.0 0.0 0.00 0.00 0.00 83 1017.6
20190121061012 12 252 5.0 0.0 0.00 0.00 0.00 83 1017.8
20190121060511 12 178 5.0 0.0 0.00 0.00 0.00 83 1017.5
20190121060012 12 177 3.0 0.0 0.00 0.00 0.00 83 1017.6
20190121055511 12 138 5.0 0.0 0.00 0.00 0.00 83 1017.4
20190121055012 12 304 5.0 0.0 0.00 0.00 0.00 84 1017.4
20190121054510 12 129 1.0 0.0 0.00 0.00 0.00 84 1017.3
20190121054010 12 240 8.0 0.0 0.00 0.00 0.00 84 1017.4
20190121053510 12 290 7.0 0.0 0.00 0.00 0.00 84 1017.1
20190121053010 12 89 5.0 0.0 0.00 0.00 0.00 84 1017.2
20190121052510 12 136 4.0 0.0 0.00 0.00 0.00 84 1017.3
20190121052010 12 113 3.0 0.0 0.00 0.00 0.00 84 1017.2
20190121051511 12 243 3.0 0.0 0.00 0.00 0.00 84 1017.2
20190121051010 12 269 8.0 12.0 0.00 0.00 0.00 84 1018.0
20190121050510 12 298 7.0 0.0 0.00 0.00 0.00 84 1017.8
20190121050010 12 265 3.0 0.0 0.00 0.00 0.00 84 1017.6
20190121045510 13 257 3.0 0.0 0.00 0.00 0.00 85 1017.6
20190121045011 12 254 9.0 0.0 0.00 0.00 0.00 84 1017.4
20190121044510 12 240 8.0 0.0 0.00 0.00 0.00 85 1017.4
20190121044010 13 304 4.0 0.0 0.00 0.00 0.00 85 1017.5
20190121043511 13 244 10.0 0.0 0.00 0.00 0.00 84 1017.4
20190121043010 13 317 3.0 12.0 0.00 0.00 0.00 85 1017.3
20190121042510 13 161 5.0 0.0 0.00 0.00 0.00 85 1017.2
20190121042010 13 277 3.0 0.0 0.00 0.00 0.00 85 1017.3
20190121041510 13 271 6.0 0.0 0.00 0.00 0.00 85 1017.2
20190121041010 13 248 5.0 0.0 0.00 0.00 0.00 85 1017.2
20190121040510 13 153 2.0 0.0 0.00 0.00 0.00 84 1017.3
20190121040010 13 240 3.0 0.0 0.00 0.00 0.00 84 1017.1
20190121035510 13 328 3.0 0.0 0.00 0.01 0.00 84 1017.1
20190121035010 13 246 3.0 0.0 0.00 0.01 0.00 84 1017.1
20190121034512 13 238 9.0 0.0 0.00 0.01 0.00 84 1017.1
20190121034010 13 261 1.0 0.0 0.00 0.01 0.00 85 1017.2
20190121033511 13 290 2.0 0.0 0.00 0.01 0.00 84 1016.7
20190121033010 13 250 3.0 0.0 0.00 0.01 0.00 84 1016.6
20190121032510 14 302 2.0 0.0 0.00 0.01 0.00 84 1016.4
20190121032010 14 250 8.0 0.0 0.00 0.01 0.00 84 1016.6
20190121031510 14 263 1.0 0.0 0.00 0.01 0.00 84 1016.7
20190121031011 14 244 11.0 0.0 0.00 0.01 0.00 84 1016.6
20190121030510 14 250 3.0 0.0 0.00 0.01 0.00 84 1016.7
20190121030011 14 242 6.0 0.0 0.00 0.01 0.00 84 1016.6
20190121025510 14 63 6.0 0.0 0.00 0.01 0.00 84 1016.4
20190121025011 14 219 5.0 0.0 0.00 0.01 0.00 84 1016.5
20190121024512 14 252 2.0 0.0 0.00 0.01 0.00 84 1016.5
20190121024010 14 286 3.0 0.0 0.00 0.01 0.00 84 1016.4
20190121023511 14 231 7.0 0.0 0.00 0.01 0.00 84 1016.4
20190121023011 14 300 2.0 0.0 0.00 0.01 0.00 83 1016.2
20190121022511 14 288 3.0 0.0 0.00 0.01 0.00 84 1016.2
20190121022010 14 242 4.0 0.0 0.00 0.01 0.00 84 1017.1
20190121021510 14 292 5.0 0.0 0.00 0.01 0.00 84 1016.9
20190121021011 14 278 6.0 0.0 0.00 0.01 0.00 84 1016.8
20190121020511 15 342 4.0 0.0 0.00 0.02 0.00 84 1016.6
20190121020011 15 232 5.0 0.0 0.00 0.02 0.00 84 1016.5
20190121015511 15 39 4.0 0.0 0.00 0.03 0.00 84 1016.5
20190121015012 15 258 3.0 0.0 0.00 0.03 0.00 83 1016.3
20190121014511 15 293 9.0 0.0 0.00 0.03 0.00 83 1016.4
20190121014011 15 284 4.0 0.0 0.00 0.04 0.00 83 1016.6
20190121013510 16 237 12.0 0.0 0.00 0.05 0.00 84 1016.6
20190121013011 15 288 2.0 0.0 0.00 0.06 0.00 84 1016.5
20190121012511 15 117 6.0 0.0 0.00 0.06 0.00 83 1016.3
20190121012010 15 122 5.0 0.0 0.00 0.07 0.00 84 1016.1
20190121011512 16 235 10.0 0.0 0.00 0.08 0.00 84 1016.1
20190121011010 16 240 4.0 0.0 0.00 0.11 0.00 84 1016.0
20190121010511 16 28 9.0 0.0 0.00 0.12 0.00 84 1016.0
20190121010011 16 293 5.0 0.0 0.00 0.14 0.00 84 1015.7
20190121005511 16 35 3.0 0.0 0.00 0.15 0.00 84 1015.6
20190121005011 16 261 8.0 0.0 0.00 0.16 0.00 84 1015.8
20190121004511 16 236 3.0 0.0 0.00 0.16 0.00 85 1015.6
20190121004013 16 325 4.0 0.0 0.00 0.17 0.00 85 1015.3
20190121003510 16 136 2.0 0.0 0.00 0.18 0.00 84 1015.2
20190121003011 16 322 8.0 0.0 0.00 0.19 0.00 84 1015.2
20190121002511 16 316 6.0 0.0 0.00 0.20 0.00 84 1015.1
20190121002011 16 293 3.0 0.0 0.00 0.20 0.00 85 1015.1
20190121001511 16 93 2.0 0.0 0.00 0.20 0.00 84 1014.6
20190121001012 16 333 4.0 0.0 0.00 0.21 0.00 84 1014.5
20190121000511 17 94 2.0 0.0 0.00 0.21 0.00 84 1014.4
20190121000011 17 121 2.0 0.0 0.00 0.22 0.00 84 1014.3
20190120235511 17 350 3.0 0.0 0.00 0.22 0.00 85 1014.2
20190120235011 17 228 6.0 0.0 0.00 0.22 0.00 84 1014.1
20190120234511 17 295 0.0 0.0 0.00 0.22 0.00 84 1013.8
20190120234011 17 284 6.0 0.0 0.00 0.23 0.00 85 1013.8
20190120233511 17 269 8.0 0.0 0.00 0.23 0.00 85 1013.7
20190120233011 17 98 6.0 0.0 0.00 0.23 0.00 86 1013.5
20190120232510 18 344 4.0 0.0 0.00 0.23 0.00 86 1014.4
20190120232011 18 309 2.0 0.0 0.00 0.23 0.00 86 1014.4
20190120231511 18 17 4.0 0.0 0.00 0.23 0.00 86 1014.4
20190120231012 18 288 10.0 0.0 0.00 0.23 0.00 86 1014.1
20190120230512 18 308 8.0 0.0 0.00 0.23 0.00 86 1013.8
20190120230011 18 298 4.0 0.0 0.00 0.23 0.00 86 1013.7
20190120225511 18 26 1.0 0.0 0.00 0.23 0.00 85 1013.7
20190120225011 19 286 6.0 0.0 0.00 0.23 0.00 86 1013.8
20190120224511 19 228 5.0 0.0 0.00 0.23 0.00 86 1013.6
20190120224011 19 261 8.0 0.0 0.00 0.23 0.00 86 1013.6
20190120223511 19 292 4.0 0.0 0.00 0.23 0.00 86 1013.4
20190120223011 19 238 11.0 0.0 0.00 0.23 0.00 87 1013.3
20190120222512 19 101 3.0 0.0 0.00 0.23 0.00 86 1013.1
20190120222010 19 272 3.0 0.0 0.00 0.24 0.00 86 1013.0
20190120221510 19 230 3.0 0.0 0.00 0.24 0.00 86 1012.8
20190120221011 19 283 4.0 0.0 0.00 0.24 0.00 87 1012.4
20190120220510 19 338 5.0 0.0 0.00 0.24 0.00 86 1012.4
20190120220010 20 264 2.0 0.0 0.00 0.24 0.00 87 1012.3
20190120215510 20 38 1.0 0.0 0.00 0.24 0.00 86 1012.3
20190120215010 20 269 2.0 18.0 0.00 0.24 0.00 87 1012.2
20190120214510 20 298 5.0 18.0 0.00 0.24 0.00 87 1012.3
20190120214010 20 329 3.0 0.0 0.00 0.24 0.00 88 1012.0
20190120213510 20 182 3.0 0.0 0.00 0.24 0.00 87 1011.7
20190120213010 20 223 7.0 0.0 0.00 0.24 0.00 87 1011.5
20190120212510 21 141 3.0 0.0 0.00 0.24 0.00 89 1011.6
20190120212010 21 98 11.0 0.0 0.00 0.24 0.00 89 1011.4
20190120211510 21 355 8.0 0.0 0.00 0.24 0.00 89 1011.0
20190120211010 21 169 10.0 18.0 0.00 0.24 0.00 90 1011.3
20190120210510 21 360 3.0 18.0 0.00 0.24 0.00 90 1011.3
20190120210010 21 284 10.0 0.0 0.00 0.24 0.00 89 1010.9
20190120205510 21 277 7.0 0.0 0.00 0.24 0.00 91 1011.0
20190120205010 21 285 4.0 0.0 0.00 0.24 0.00 91 1010.9
20190120204511 21 263 7.0 0.0 0.00 0.24 0.00 91 1011.0
20190120204010 21 125 7.0 0.0 0.00 0.24 0.00 90 1010.7
20190120203510 21 140 4.0 0.0 0.00 0.24 0.00 91 1010.7
20190120203010 22 228 4.0 0.0 0.00 0.24 0.00 92 1010.7
20190120202510 21 291 12.0 0.0 0.00 0.24 0.00 92 1010.3
20190120202010 21 281 4.0 19.0 0.00 0.24 0.00 92 1010.2
20190120201511 22 241 8.0 0.0 0.00 0.24 0.00 91 1010.3
20190120201011 22 279 10.0 0.0 0.00 0.24 0.00 92 1009.8
20190120200510 21 232 4.0 0.0 0.00 0.24 0.00 92 1009.7
20190120200011 21 231 3.0 0.0 0.00 0.24 0.00 90 1009.6
20190120195510 21 306 7.0 0.0 0.00 0.24 0.00 91 1009.3
20190120195010 22 308 9.0 0.0 0.00 0.24 0.00 91 1009.3
20190120194510 21 191 12.0 0.0 0.00 0.24 0.00 92 1009.4
20190120194011 21 267 1.0 0.0 0.00 0.24 0.00 92 1010.2
20190120193511 21 324 4.0 0.0 0.00 0.24 0.00 92 1010.0
20190120193010 21 250 8.0 0.0 0.00 0.24 0.00 93 1009.9
20190120192511 20 234 3.0 0.0 0.00 0.24 0.00 93 1009.9
20190120192010 20 292 3.0 0.0 0.00 0.25 0.00 93 1009.9
20190120191511 20 254 4.0 0.0 0.00 0.25 0.00 93 1009.3
20190120191011 20 15 7.0 0.0 0.00 0.25 0.00 93 1009.4
20190120190511 20 24 2.0 0.0 0.00 0.25 0.00 93 1009.0
20190120190010 20 329 5.0 0.0 0.00 0.25 0.00 93 1009.0
20190120185511 20 271 13.0 17.0 0.00 0.26 0.00 93 1009.0
20190120185010 20 304 7.0 13.0 0.00 0.26 0.00 93 1009.0
20190120184511 20 117 6.0 0.0 0.00 0.26 0.00 93 1009.0
20190120184011 20 248 4.0 14.0 0.00 0.26 0.00 93 1008.7
20190120183511 21 224 10.0 0.0 0.00 0.26 0.00 93 1008.7
20190120183012 21 323 6.0 8.0 0.00 0.26 0.00 94 1008.6
20190120182511 20 60 4.0 0.0 0.00 0.26 0.00 93 1008.4
20190120182011 20 178 2.0 0.0 0.00 0.26 0.00 93 1008.8
20190120181512 20 246 8.0 0.0 0.00 0.26 0.00 94 1008.4
20190120181011 20 171 2.0 0.0 0.00 0.26 0.00 93 1008.5
20190120180511 20 355 3.0 0.0 0.00 0.26 0.00 93 1008.3
20190120180011 20 302 3.0 0.0 0.00 0.26 0.00 94 1008.3
20190120175511 21 70 6.0 0.0 0.00 0.26 0.00 94 1008.0
20190120175011 20 287 5.0 0.0 0.00 0.27 0.00 93 1008.2
20190120174511 20 278 4.0 0.0 0.00 0.27 0.00 93 1008.1
20190120174011 20 161 5.0 0.0 0.00 0.27 0.00 93 1008.1
20190120173511 20 213 5.0 0.0 0.00 0.27 0.00 93 1008.3
20190120173010 20 292 1.0 0.0 0.00 0.28 0.00 93 1008.1
20190120172512 20 254 4.0 0.0 0.00 0.28 0.00 93 1008.1
20190120172011 20 298 2.0 0.0 0.00 0.28 0.00 93 1008.1
20190120171511 20 288 4.0 0.0 0.00 0.28 0.00 93 1008.1
20190120171011 20 217 7.0 0.0 0.00 0.29 0.00 93 1008.0
20190120170511 20 267 2.0 0.0 0.00 0.29 0.00 93 1007.9
20190120170011 20 298 3.0 0.0 0.00 0.29 0.00 93 1007.7
20190120165511 20 113 2.0 0.0 0.00 0.29 0.00 93 1007.7
20190120165011 20 213 3.0 0.0 0.00 0.29 0.00 93 1008.0
20190120164511 20 323 4.0 0.0 0.00 0.29 0.00 94 1007.7
20190120164011 20 305 5.0 0.0 0.00 0.29 0.00 93 1007.8
20190120163511 20 311 2.0 0.0 0.00 0.29 0.00 93 1008.0
20190120163011 20 311 6.0 0.0 0.00 0.29 0.00 94 1007.9
20190120162511 20 223 7.0 0.0 0.00 0.29 0.00 93 1007.7
20190120162011 20 240 19.0 0.0 0.00 0.29 0.00 93 1007.5
20190120161511 20 41 6.0 0.0 0.00 0.29 0.00 94 1007.6
20190120161010 20 232 4.0 0.0 0.00 0.29 0.00 93 1007.4
20190120160511 20 321 3.0 0.0 0.00 0.29 0.00 93 1007.2
20190120160012 20 95 6.0 0.0 0.00 0.29 0.00 93 1007.2
20190120155511 20 250 4.0 0.0 0.00 0.29 0.00 93 1007.0
20190120155011 20 286 11.0 0.0 0.00 0.29 0.00 93 1006.9
20190120154512 20 342 4.0 0.0 0.00 0.29 0.00 93 1006.8
20190120154011 20 32 2.0 0.0 0.00 0.29 0.00 93 1006.7
20190120153512 20 314 5.0 0.0 0.00 0.29 0.00 93 1006.9
20190120153011 20 261 4.0 0.0 0.00 0.29 0.00 93 1006.7
20190120152512 20 289 3.0 0.0 0.00 0.29 0.00 93 1007.4
20190120152011 20 355 5.0 0.0 0.00 0.29 0.00 93 1007.2
20190120151511 20 221 3.0 0.0 0.00 0.29 0.00 93 1006.9
20190120151011 20 261 3.0 0.0 0.00 0.29 0.00 93 1007.0
20190120150511 20 81 4.0 0.0 0.00 0.29 0.00 94 1006.6
20190120150011 20 117 3.0 0.0 0.00 0.29 0.00 94 1006.2
20190120145512 20 254 3.0 0.0 0.00 0.29 0.00 94 1006.0
20190120145011 21 54 4.0 0.0 0.00 0.29 0.00 94 1005.7
20190120144510 21 325 3.0 0.0 0.00 0.29 0.00 93 1005.5
20190120144010 21 321 5.0 0.0 0.00 0.29 0.00 93 1005.6
20190120143510 21 331 9.0 0.0 0.00 0.29 0.00 94 1005.3
20190120143011 21 332 9.0 0.0 0.00 0.29 0.00 94 1004.9
20190120142510 22 360 8.0 0.0 0.00 0.29 0.00 94 1004.9
20190120142010 22 58 4.0 0.0 0.00 0.29 0.00 94 1004.7
20190120141510 22 252 9.0 0.0 0.00 0.29 0.00 94 1004.9
20190120141010 22 265 9.0 0.0 0.00 0.29 0.00 94 1004.7
20190120140510 22 342 9.0 0.0 0.00 0.29 0.00 94 1004.4
20190120140010 22 227 13.0 0.0 0.00 0.29 0.00 94 1004.3
20190120135511 23 238 11.0 0.0 0.00 0.29 0.00 94 1004.6
20190120135010 23 338 4.0 0.0 0.00 0.29 0.00 94 1003.8
20190120134511 23 271 9.0 0.0 0.00 0.29 0.00 94 1003.8
20190120134010 23 302 4.0 0.0 0.00 0.29 0.00 94 1003.5
20190120133510 23 267 10.0 0.0 0.00 0.29 0.00 94 1003.6
20190120133010 24 238 10.0 0.0 0.00 0.29 0.00 94 1003.3
20190120132511 24 327 4.0 0.0 0.00 0.29 0.00 94 1003.1
20190120132012 24 259 13.0 0.0 0.00 0.29 0.00 94 1002.9
20190120131511 24 218 14.0 0.0 0.00 0.29 0.00 95 1002.7
20190120131011 24 152 14.0 0.0 0.00 0.29 0.00 94 1001.8
20190120130511 24 242 12.0 0.0 0.00 0.29 0.00 94 1002.3
20190120130011 25 222 9.0 0.0 0.00 0.29 0.00 95 1002.2
20190120125510 25 261 9.0 0.0 0.00 0.29 0.00 95 1002.3
20190120125011 25 272 10.0 0.0 0.00 0.29 0.00 95 1002.6
20190120124511 26 294 4.0 0.0 0.00 0.29 0.00 95 1002.1
20190120124011 26 246 9.0 0.0 0.00 0.29 0.00 95 1002.4
20190120123511 27 78 7.0 0.0 0.00 0.29 0.00 95 1002.2
20190120123010 27 208 4.0 0.0 0.00 0.29 0.00 96 1001.9
20190120122510 27 190 5.0 0.0 0.00 0.29 0.00 96 1001.8
20190120122011 27 61 2.0 0.0 0.00 0.29 0.00 96 1001.7
20190120121511 28 258 13.0 0.0 0.00 0.29 0.00 96 1001.2
20190120121010 28 351 5.0 0.0 0.00 0.29 0.00 96 1001.0
20190120120510 28 296 10.0 0.0 0.00 0.29 0.00 96 1000.9
20190120120011 28 226 7.0 0.0 0.00 0.29 0.00 96 1000.6
20190120115511 28 200 8.0 0.0 0.00 0.29 0.00 96 1001.0
20190120115010 29 261 10.0 0.0 0.00 0.29 0.00 96 1000.8
20190120114510 29 347 6.0 0.0 0.00 0.29 0.00 96 1000.8
20190120114011 29 241 10.0 0.0 0.00 0.29 0.00 96 1000.9
20190120113510 29 235 5.0 0.0 0.00 0.29 0.00 96 1001.0
20190120113010 29 241 9.0 0.0 0.00 0.29 0.00 96 1001.2
20190120112512 29 238 2.0 0.0 0.00 0.29 0.00 96 1001.2
20190120112011 29 194 3.0 0.0 0.00 0.29 0.00 96 1001.3
20190120111511 30 281 10.0 0.0 0.00 0.29 0.00 97 1001.3
20190120111011 30 331 4.0 0.0 0.00 0.29 0.00 96 1001.1
20190120110511 30 288 10.0 0.0 0.00 0.29 0.00 96 1001.0
20190120110011 31 276 3.0 0.0 0.00 0.29 0.00 97 1001.1
20190120105511 31 299 7.0 0.0 0.00 0.29 0.00 96 1000.9
20190120105011 31 239 10.0 0.0 0.00 0.29 0.00 97 1000.6
20190120104511 32 275 11.0 0.0 0.00 0.29 0.00 97 1000.7
20190120104011 32 297 5.0 0.0 0.00 0.29 0.00 96 1000.5
20190120103512 32 223 17.0 0.0 0.00 0.29 0.00 96 1000.3
20190120103012 32 213 9.0 0.0 0.00 0.29 0.00 97 1000.3
20190120102511 32 234 3.0 0.0 0.00 0.29 0.00 96 1000.1
20190120102011 33 296 5.0 0.0 0.00 0.29 0.00 97 1000.3
20190120101511 33 240 6.0 0.0 0.00 0.29 0.00 97 1001.0
20190120101011 33 258 10.0 0.0 0.00 0.29 0.00 97 1000.9
20190120100511 33 231 8.0 0.0 0.00 0.29 0.00 97 1000.7
20190120100011 34 257 9.0 0.0 0.00 0.29 0.00 97 1000.8
20190120095511 34 286 8.0 0.0 0.00 0.29 0.00 97 1000.7
20190120095012 34 251 7.0 0.0 0.00 0.29 0.00 97 1000.5
20190120094512 34 296 8.0 0.0 0.00 0.29 0.00 97 1000.5
20190120094011 34 266 7.0 15.0 0.00 0.29 0.00 97 1000.5
20190120093511 35 296 5.0 15.0 0.00 0.29 0.00 97 1000.6
20190120093011 35 229 4.0 16.0 0.00 0.29 0.00 97 1000.5
20190120092511 35 233 10.0 22.0 0.00 0.29 0.00 97 1000.5
20190120092012 36 223 9.0 22.0 0.00 0.29 0.00 97 1000.3
20190120091511 36 290 3.0 0.0 0.00 0.29 0.00 97 1000.0
20190120091011 36 248 11.0 0.0 0.00 0.29 0.00 97 1000.0
20190120090511 37 246 12.0 0.0 0.00 0.29 0.00 97 999.9
20190120090010 37 246 7.0 0.0 0.00 0.29 0.00 97 999.6
20190120085511 38 285 4.0 0.0 0.00 0.29 0.00 97 999.9
20190120085011 38 270 9.0 0.0 0.00 0.29 0.00 97 1000.0
20190120084512 38 232 10.0 0.0 0.00 0.29 0.00 97 999.8
20190120084011 39 270 4.0 0.0 0.00 0.29 0.00 97 999.9
20190120083511 39 261 12.0 0.0 0.00 0.29 0.00 97 999.9
20190120083011 40 142 10.0 0.0 0.00 0.29 0.00 97 999.6
20190120082511 40 309 3.0 0.0 0.00 0.29 0.00 97 999.5
20190120082011 42 246 7.0 0.0 0.00 0.29 0.00 97 999.7
20190120081511 42 238 5.0 13.0 0.00 0.29 0.00 97 999.1
20190120081011 43 159 5.0 0.0 0.00 0.29 0.00 97 999.0
20190120080510 44 117 4.0 0.0 0.00 0.29 0.00 97 998.9
20190120080011 44 252 5.0 0.0 0.00 0.29 0.00 97 999.0
20190120075511 44 338 3.0 0.0 0.00 0.29 0.00 97 998.8
20190120075011 43 279 0.0 0.0 0.00 0.29 0.00 97 998.8
20190120074511 43 279 2.0 0.0 0.00 0.29 0.00 97 998.8
20190120074010 43 282 0.0 0.0 0.00 0.29 0.00 97 998.6
20190120073511 43 282 2.0 0.0 0.00 0.29 0.00 97 998.6
20190120073011 43 271 2.0 0.0 0.00 0.29 0.00 97 998.6
20190120072511 44 271 2.0 0.0 0.00 0.29 0.00 97 998.7
20190120072011 44 271 0.0 0.0 0.00 0.29 0.00 97 998.7
20190120071510 44 271 1.0 0.0 0.00 0.29 0.00 97 998.7
20190120071010 44 271 0.0 0.0 0.00 0.29 0.00 97 998.7
20190120070510 45 271 1.0 0.0 0.00 0.29 0.00 97 998.5
20190120070011 45 271 0.0 0.0 0.00 0.29 0.00 97 998.6
20190120065510 45 271 0.0 0.0 0.00 0.29 0.00 97 998.7
20190120065010 46 271 0.0 0.0 0.00 0.29 0.00 97 998.6
20190120064510 46 271 0.0 0.0 0.00 0.29 0.00 97 998.8
20190120064010 46 271 1.0 0.0 0.00 0.29 0.00 97 998.9